TimeCDT,TemperatureF,Dew PointF,Humidity,Sea Level PressureIn,VisibilityMPH,Wind Direction,Wind SpeedMPH,Gust SpeedMPH,PrecipitationIn,Events,Conditions,WindDirDegrees,DateUTC
12:15 AM,53.6,50.0,88,29.98,8.0,Calm,Calm,-,N/A,,Mostly Cloudy,0,2013-04-29 05:15:00
12:35 AM,53.6,51.8,94,29.98,10.0,Calm,Calm,-,N/A,,Overcast,0,2013-04-29 05:35:00
12:55 AM,53.6,51.8,94,29.98,10.0,Calm,Calm,-,N/A,,Overcast,0,2013-04-29 05:55:00
1:15 AM,53.6,50.0,88,29.98,8.0,Calm,Calm,-,N/A,,Mostly Cloudy,0,2013-04-29 06:15:00
1:35 AM,53.6,50.0,88,29.98,10.0,Calm,Calm,-,N/A,,Mostly Cloudy,0,2013-04-29 06:35:00
1:55 AM,51.8,50.0,94,29.98,10.0,Calm,Calm,-,N/A,,Overcast,0,2013-04-29 06:55:00
2:15 AM,53.6,50.0,88,29.97,10.0,Calm,Calm,-,N/A,,Overcast,0,2013-04-29 07:15:00
2:35 AM,53.6,50.0,88,29.97,10.0,Calm,Calm,-,N/A,,Mostly Cloudy,0,2013-04-29 07:35:00
2:55 AM,53.6,50.0,88,29.97,10.0,Calm,Calm,-,N/A,,Overcast,0,2013-04-29 07:55:00
3:15 AM,53.6,50.0,88,29.96,10.0,Calm,Calm,-,N/A,,Overcast,0,2013-04-29 08:15:00
3:35 AM,53.6,50.0,88,29.97,9.0,Calm,Calm,-,N/A,,Scattered Clouds,0,2013-04-29 08:35:00
3:55 AM,50.0,50.0,100,29.97,1.5,Calm,Calm,-,N/A,,Mostly Cloudy,0,2013-04-29 08:55:00
4:15 AM,50.0,50.0,100,29.96,2.0,Calm,Calm,-,N/A,,Scattered Clouds,0,2013-04-29 09:15:00
4:35 AM,50.0,48.2,94,29.96,0.2,Calm,Calm,-,N/A,Fog,Fog,0,2013-04-29 09:35:00
4:55 AM,50.0,48.2,94,29.97,0.2,Calm,Calm,-,N/A,Fog,Fog,0,2013-04-29 09:55:00
5:15 AM,50.0,48.2,94,29.97,0.5,Calm,Calm,-,N/A,Fog,Fog,0,2013-04-29 10:15:00
5:55 AM,50.0,48.2,94,29.98,0.2,Calm,Calm,-,N/A,Fog,Fog,0,2013-04-29 10:55:00
6:15 AM,48.2,48.2,100,29.99,0.2,Calm,Calm,-,N/A,Fog,Fog,0,2013-04-29 11:15:00
6:35 AM,48.2,48.2,100,30.00,0.2,WNW,3.5,-,N/A,Fog,Fog,300,2013-04-29 11:35:00
6:55 AM,50.0,48.2,94,30.01,0.2,Calm,Calm,-,N/A,Fog,Fog,0,2013-04-29 11:55:00
7:15 AM,50.0,48.2,94,30.02,0.2,NW,3.5,-,N/A,Fog,Fog,310,2013-04-29 12:15:00
7:35 AM,51.8,50.0,94,30.02,0.8,Calm,Calm,-,N/A,,Overcast,0,2013-04-29 12:35:00
7:55 AM,53.6,50.0,88,30.02,0.5,Calm,Calm,-,N/A,Fog,Fog,0,2013-04-29 12:55:00
8:15 AM,53.6,51.8,94,30.03,0.8,Calm,Calm,-,N/A,,Overcast,0,2013-04-29 13:15:00
8:35 AM,55.4,53.6,94,30.03,1.5,Calm,Calm,-,N/A,,Overcast,0,2013-04-29 13:35:00
8:55 AM,57.2,53.6,88,30.03,10.0,Calm,Calm,-,N/A,,Scattered Clouds,0,2013-04-29 13:55:00
9:15 AM,59.0,53.6,82,30.03,10.0,SE,3.5,-,N/A,,Clear,140,2013-04-29 14:15:00
9:35 AM,62.6,55.4,77,30.03,10.0,SE,3.5,-,N/A,,Clear,140,2013-04-29 14:35:00
9:55 AM,62.6,55.4,77,30.03,10.0,South,3.5,-,N/A,,Clear,170,2013-04-29 14:55:00
10:15 AM,64.4,55.4,73,30.03,10.0,SE,4.6,-,N/A,,Clear,140,2013-04-29 15:15:00
10:35 AM,66.2,55.4,68,30.03,10.0,SSE,4.6,-,N/A,,Clear,160,2013-04-29 15:35:00
10:55 AM,66.2,53.6,64,30.03,10.0,NE,3.5,-,N/A,,Clear,50,2013-04-29 15:55:00
11:15 AM,66.2,53.6,64,30.02,10.0,SE,3.5,-,N/A,,Clear,140,2013-04-29 16:15:00
11:35 AM,68.0,53.6,60,30.02,10.0,Calm,Calm,-,N/A,,Clear,0,2013-04-29 16:35:00
11:55 AM,69.8,53.6,56,30.02,10.0,Calm,Calm,-,N/A,,Clear,0,2013-04-29 16:55:00
12:10 PM,69.8,53.6,56,30.01,10.0,Calm,Calm,-,N/A,,Clear,0,2013-04-29 17:10:00
12:35 PM,69.8,53.6,56,30.00,10.0,Calm,Calm,-,N/A,,Clear,0,2013-04-29 17:35:00
12:55 PM,71.6,51.8,50,30.00,10.0,Calm,Calm,-,N/A,,Clear,0,2013-04-29 17:55:00
1:15 PM,73.4,50.0,44,29.99,10.0,SW,3.5,-,N/A,,Clear,230,2013-04-29 18:15:00
1:35 PM,73.4,50.0,44,29.99,10.0,NNE,3.5,-,N/A,,Clear,30,2013-04-29 18:35:00
1:55 PM,73.4,48.2,41,29.98,10.0,NE,4.6,-,N/A,,Clear,50,2013-04-29 18:55:00
2:15 PM,73.4,48.2,41,29.97,10.0,East,4.6,-,N/A,,Clear,90,2013-04-29 19:15:00
2:35 PM,75.2,48.2,38,29.96,10.0,Calm,Calm,-,N/A,,Clear,0,2013-04-29 19:35:00
2:55 PM,75.2,50.0,41,29.95,10.0,NE,4.6,-,N/A,,Clear,40,2013-04-29 19:55:00
3:15 PM,75.2,50.0,41,29.94,10.0,North,4.6,-,N/A,,Clear,350,2013-04-29 20:15:00
3:35 PM,75.2,48.2,38,29.94,10.0,Calm,Calm,-,N/A,,Clear,0,2013-04-29 20:35:00
3:55 PM,75.2,48.2,38,29.93,10.0,Calm,Calm,-,N/A,,Clear,0,2013-04-29 20:55:00
4:15 PM,75.2,48.2,38,29.93,10.0,Calm,Calm,-,N/A,,Clear,0,2013-04-29 21:15:00
4:35 PM,75.2,48.2,38,29.93,10.0,Calm,Calm,-,N/A,,Clear,0,2013-04-29 21:35:00
4:55 PM,75.2,48.2,38,29.92,10.0,Calm,Calm,-,N/A,,Clear,0,2013-04-29 21:55:00
5:15 PM,77.0,48.2,36,29.92,10.0,East,3.5,-,N/A,,Clear,80,2013-04-29 22:15:00
5:35 PM,77.0,48.2,36,29.91,10.0,Calm,Calm,-,N/A,,Clear,0,2013-04-29 22:35:00
5:55 PM,77.0,48.2,36,29.91,10.0,Calm,Calm,-,N/A,,Clear,0,2013-04-29 22:55:00
6:15 PM,75.2,48.2,38,29.91,10.0,Calm,Calm,-,N/A,,Clear,0,2013-04-29 23:15:00
6:35 PM,75.2,50.0,41,29.91,10.0,Calm,Calm,-,N/A,,Clear,0,2013-04-29 23:35:00
6:55 PM,73.4,51.8,47,29.91,10.0,South,3.5,-,N/A,,Clear,170,2013-04-29 23:55:00
7:15 PM,71.6,53.6,53,29.91,10.0,SSE,4.6,-,N/A,,Clear,150,2013-04-30 00:15:00
7:35 PM,71.6,53.6,53,29.91,10.0,South,3.5,-,N/A,,Clear,170,2013-04-30 00:35:00
7:55 PM,66.2,53.6,64,29.91,10.0,South,4.6,-,N/A,,Clear,170,2013-04-30 00:55:00
8:15 PM,64.4,53.6,68,29.92,10.0,SSE,3.5,-,N/A,,Clear,150,2013-04-30 01:15:00
8:35 PM,64.4,55.4,73,29.92,10.0,Calm,Calm,-,N/A,,Clear,0,2013-04-30 01:35:00
8:55 PM,62.6,55.4,77,29.93,10.0,Calm,Calm,-,N/A,,Clear,0,2013-04-30 01:55:00
9:15 PM,62.6,55.4,77,29.94,10.0,Calm,Calm,-,N/A,,Clear,0,2013-04-30 02:15:00
9:35 PM,59.0,53.6,82,29.94,10.0,SE,3.5,-,N/A,,Clear,140,2013-04-30 02:35:00
9:55 PM,59.0,55.4,88,29.94,10.0,SE,3.5,-,N/A,,Clear,140,2013-04-30 02:55:00
10:15 PM,59.0,53.6,82,29.94,10.0,SSE,3.5,-,N/A,,Clear,150,2013-04-30 03:15:00
10:35 PM,57.2,53.6,88,29.94,10.0,SSE,3.5,-,N/A,,Clear,150,2013-04-30 03:35:00
10:55 PM,57.2,53.6,88,29.94,10.0,Calm,Calm,-,N/A,,Clear,0,2013-04-30 03:55:00
11:15 PM,57.2,55.4,94,29.94,10.0,Calm,Calm,-,N/A,,Clear,0,2013-04-30 04:15:00
11:35 PM,57.2,55.4,94,29.94,10.0,Calm,Calm,-,N/A,,Clear,0,2013-04-30 04:35:00
11:55 PM,55.4,53.6,94,29.94,10.0,Calm,Calm,-,N/A,,Clear,0,2013-04-30 04:55:00